Weather History for St. Joseph, MO

Change the Weather History Date:

Wednesday, March 12, 2014

  Actual Average Record
Temperature  
Mean Temperature 41 °F 41 °F  
Max Temperature 53 °F 53 °F 81 °F (1916)
Min Temperature 29 °F 30 °F -8 °F (1948)
Degree Days  
Heating Degree Days 24 24  
Month to date heating degree days 409 314  
Since 1 July heating degree days 5349 4622  
Cooling Degree Days 0 0  
Month to date cooling degree days 0 0  
Year to date cooling degree days 0 0  
Moisture  
Dew Point 27 °F    
Average Humidity 62    
Maximum Humidity 85    
Minimum Humidity 38    
Precipitation  
Precipitation 0.00 in 0.06 in 2.36 in (1961)
Month to date precipitation 0.27 0.71  
Year to date precipitation 1.09 2.20  
Sea Level Pressure  
Sea Level Pressure 30.14 in    
Wind  
Wind Speed 11 mph (NW)    
Max Wind Speed 25 mph    
Max Gust Speed 31 mph    
Visibility 10 miles    
Events      
T = Trace of Precipitation, MM = Missing Value Source: NWS Daily Summary

Daily Weather History Graph

Daily Weather History Graph

Search for Another Location

Airport:

Trip Planner

Search our weather history database for the weather conditions in past years. The results will help you decide how hot, cold, wet, or windy it might be!

Date:

Astronomy

Mar. 12, 2014 Rise Set
Actual Time 7:35 AM CDT 7:23 PM CDT
Civil Twilight 7:08 AM CDT 7:50 PM CDT
Nautical Twilight 6:37 AM CDT 8:21 PM CDT
Astronomical Twilight 6:06 AM CDT 8:53 PM CDT
Moon 3:55 PM CDT (3/12) 5:07 AM CDT (3/12)
Length of Visible Light 12h 41m
Length of Day
11h 47m
Waxing Gibbous, 85% of the Moon is Illuminated
Mar 12
Waxing Gibbous
Mar 16
Full
Mar 23
Last Quarter
Mar 30
New
Apr 7
First Quarter

Hourly Weather History & Observations

Time (CDT) Temp. Windchill Dew Point Humidity Pressure Visibility Wind Dir Wind Speed Gust Speed Precip Events Conditions
12:53 AM 36.0 °F 27.1 °F 30.9 °F 82% 30.02 in 10.0 mi NNW 13.8 mph 21.9 mph N/A   Overcast
1:53 AM 37.0 °F 27.0 °F 30.9 °F 79% 30.04 in 10.0 mi NNW 18.4 mph - N/A   Partly Cloudy
2:53 AM 36.0 °F 25.6 °F 30.0 °F 79% 30.07 in 10.0 mi NNW 18.4 mph 26.5 mph N/A   Clear
3:53 AM 34.0 °F 22.7 °F 27.0 °F 75% 30.09 in 10.0 mi NNW 19.6 mph - N/A   Clear
4:53 AM 33.1 °F 21.2 °F 25.0 °F 72% 30.11 in 10.0 mi NNW 20.7 mph - N/A   Clear
5:53 AM 32.0 °F 21.2 °F 24.1 °F 73% 30.14 in 10.0 mi NNW 16.1 mph 27.6 mph N/A   Clear
6:53 AM 30.9 °F 20.7 °F 23.0 °F 72% 30.17 in 10.0 mi NNW 13.8 mph - N/A   Clear
7:53 AM 30.9 °F 21.2 °F 23.0 °F 72% 30.19 in 10.0 mi NNW 12.7 mph - N/A   Clear
8:53 AM 33.1 °F 25.5 °F 24.1 °F 70% 30.21 in 10.0 mi NNW 9.2 mph - N/A   Clear
9:53 AM 36.0 °F 26.7 °F 26.1 °F 67% 30.22 in 10.0 mi NNW 15.0 mph - N/A   Clear
10:53 AM 37.9 °F 29.2 °F 26.1 °F 62% 30.24 in 10.0 mi North 15.0 mph - N/A   Clear
11:53 AM 39.9 °F 33.9 °F 27.0 °F 60% 30.22 in 10.0 mi NNW 9.2 mph - N/A   Clear
12:53 PM 43.0 °F 35.4 °F 28.9 °F 58% 30.21 in 10.0 mi WNW 16.1 mph 19.6 mph N/A   Clear
1:53 PM 45.0 °F 39.7 °F 30.0 °F 56% 30.18 in 10.0 mi West 10.4 mph - N/A   Partly Cloudy
2:53 PM 48.9 °F - 30.9 °F 50% 30.15 in 10.0 mi NW 9.2 mph 18.4 mph N/A   Mostly Cloudy
3:53 PM 48.9 °F - 30.0 °F 48% 30.13 in 10.0 mi NW 13.8 mph 19.6 mph N/A   Mostly Cloudy
4:53 PM 50.0 °F - 28.9 °F 44% 30.11 in 10.0 mi NW 11.5 mph - N/A   Mostly Cloudy
5:53 PM 51.1 °F - 26.1 °F 38% 30.11 in 10.0 mi NW 15.0 mph - N/A   Partly Cloudy
6:53 PM 48.9 °F - 27.0 °F 43% 30.13 in 10.0 mi NW 12.7 mph - N/A   Clear
7:53 PM 42.1 °F - 26.1 °F 53% 30.13 in 10.0 mi Calm Calm - N/A   Clear
8:53 PM 37.9 °F - 30.0 °F 73% 30.13 in 10.0 mi Calm Calm - N/A   Clear
9:53 PM 33.1 °F - 25.0 °F 72% 30.14 in 10.0 mi Calm Calm - N/A   Clear
10:53 PM 32.0 °F 28.7 °F 26.1 °F 79% 30.14 in 10.0 mi SW 3.5 mph - N/A   Clear
11:53 PM 30.9 °F 26.2 °F 27.0 °F 85% 30.13 in 10.0 mi SSW 4.6 mph - N/A   Clear